Home   Weather   Rapid City   Past weeks

Flag for USA Past Weather in Rapid City, South Dakota, USA — Yesterday and Last 2 Weeks

41 °F


Feels Like: 33 °F
Forecast: 35 / 66 °F
Wind: 13 mph from Southeast

Location: Ellsworth Air Force Base

Current Time: Oct 24, 2016 at 1:09:38 AM

Latest Report: Oct 24, 2016 at 12:58 AM

Visibility: 10 mi

Pressure: 30.24 "Hg (26.82 "Hg at 977m altitude)

Humidity: 65%

Dew Point: 29 °F

Location of Rapid CityLocation

Past Weather in Rapid City — Graph


Rapid City Temperature Yesterday

Maximum temperature yesterday: 62 °F (at 2:58 PM)
Minimum temperature yesterday: 36 °F (at 5:58 AM)
Average temperature yesterday: 49 °F

High & Low Weather Summary for the Past Weeks

High83 °F (Oct 9, 3:58 PM)100% (Oct 18, 4:58 AM)30.42 "Hg (Oct 18, 4:58 AM)
Low27 °F (Oct 12, 6:58 AM)11% (Oct 9, 3:58 PM)29.41 "Hg (Oct 17, 2:58 PM)
Average52 °F53%29.95 "Hg
* Reported Oct 9 12:58 AM — Oct 23 11:58 PM, Rapid City, Weather by CustomWeather, © 2016

Note: Actual official high and low records may vary slightly from our data, if they occured in-between our weather recording intervals... More about our weather records


Rapid City Weather History for the Previous 24 Hours

Scroll right to see more
Time TempWeatherWind HumidityBarometerVisibility
11:58 PM
Sun, Oct 23
40 °FClear.9 mph66%30.26 "Hg10 mi
10:58 PM42 °FClear.7 mph65%30.27 "Hg10 mi
9:58 PM42 °FClear.6 mph62%30.28 "Hg10 mi
8:58 PM45 °FClear.10 mph51%30.27 "Hg10 mi
7:58 PM48 °FClear.8 mph43%30.26 "Hg10 mi
6:58 PM50 °FClear.7 mph47%30.25 "Hg10 mi
5:58 PM54 °FClear.7 mph40%30.22 "Hg10 mi
4:58 PM60 °FClear.15 mph31%30.20 "Hg10 mi
3:58 PM62 °FSunny.13 mph30%30.20 "Hg10 mi
2:58 PM62 °FSunny.10 mph31%30.19 "Hg10 mi
1:58 PM62 °FSunny.9 mph33%30.19 "Hg10 mi
12:58 PM62 °FSunny.9 mph30%30.22 "Hg10 mi
11:58 AM60 °FSunny.5 mph32%30.22 "Hg10 mi
10:58 AM57 °FSunny.5 mph40%30.23 "Hg5 mi
9:58 AM55 °FSunny.No wind46%30.23 "Hg8 mi
8:58 AM47 °FSunny.5 mph56%30.23 "Hg10 mi
7:58 AM37 °FSunny.6 mph73%30.22 "Hg10 mi
6:58 AM36 °FSunny.7 mph75%30.21 "Hg10 mi
5:58 AM36 °FClear.6 mph75%30.18 "Hg10 mi
4:58 AM38 °FClear.7 mph71%30.16 "Hg10 mi
3:58 AM39 °FClear.7 mph73%30.12 "Hg10 mi
2:58 AM42 °FClear.6 mphN/A30.11 "Hg10 mi
1:58 AM43 °FClear.10 mph66%30.09 "Hg10 mi
Weather by CustomWeather, © 2016

See weather overviewHow to use our weather pages